Grantley Adams, Barbados

7:24 AM AST on December 15, 2017 (GMT -0400)
Grantley Adams International

Weather History for TBPB - February, 2013

Change the Weather History Date:

Monday, February 4, 2013

  Actual Average Record
Temperature  
Mean Temperature 77 °F -  
Max Temperature 84 °F 82 °F 86 °F (2017)
Min Temperature 70 °F 73 °F 69 °F (2005)
Cooling Degree Days 12    
Growing Degree Days 27 (Base 50)    
Moisture  
Dew Point 67 °F    
Average Humidity 65    
Maximum Humidity 78    
Minimum Humidity 50    
Precipitation  
Precipitation 0.00 in - - ()
Sea Level Pressure  
Sea Level Pressure 29.92 in    
Wind  
Wind Speed 14 mph ()    
Max Wind Speed 21 mph    
Max Gust Speed -    
Visibility 8.5 miles    
Events      
Averages and records for this station are not official NWS values.
T = Trace of Precipitation, MM = Missing Value Source: Averaged Metar Reports

Daily Weather History Graph

Daily Weather History Graph

Search for Another Location

Airport or City:

Trip Planner

Search our weather history database for the weather conditions in past years. The results will help you decide how hot, cold, wet, or windy it might be!

Date:

Astronomy

Feb. 04, 2013 Rise Set
Actual Time 6:23 AM AST 6:00 PM AST
Civil Twilight 6:01 AM AST 6:22 PM AST
Nautical Twilight 5:36 AM AST 6:47 PM AST
Astronomical Twilight 5:10 AM AST 7:13 PM AST
Moon 12:43 AM AST (2/4) 12:32 PM AST (2/4)
Length of Visible Light 12h 20m
Length of Day
11h 36m
Last Quarter, 38% of the Moon is Illuminated
Feb 4
Last Quarter
Feb 10
New
Feb 17
First Quarter
Feb 25
Full
Mar 4
Last Quarter

Hourly Weather History & Observations

Time (AST) Temp. Heat Index Dew Point Humidity Pressure Visibility Wind Dir Wind Speed Gust Speed Precip Events Conditions
12:00 AM 75.2 °F - 68.0 °F 78% 29.92 in 6.2 mi East 13.8 mph - N/A   Scattered Clouds
1:00 AM 75.2 °F - 68.0 °F 78% 29.92 in 6.2 mi East 13.8 mph - N/A   Scattered Clouds
2:00 AM 75 °F - 67 °F 70% 29.91 in 31 mi East 12.7 mph - -   Partly Cloudy
2:00 AM 75.2 °F - 68.0 °F 78% 29.89 in 6.2 mi East 12.7 mph - N/A   Scattered Clouds
3:00 AM 75.2 °F - 68.0 °F 78% 29.89 in 6.2 mi ENE 15.0 mph - N/A   Scattered Clouds
4:00 AM 77.0 °F - 68.0 °F 74% 29.89 in 6.2 mi ENE 13.8 mph - N/A   Scattered Clouds
5:00 AM 76 °F - 66 °F 65% 29.89 in 31 mi ENE 15.0 mph - -   Partly Cloudy
5:00 AM 75.2 °F - 66.2 °F 73% 29.89 in 6.2 mi ENE 15.0 mph - N/A   Scattered Clouds
7:00 AM 77.0 °F - 66.2 °F 69% 29.92 in - ESE 13.8 mph - N/A   Scattered Clouds
8:00 AM 80 °F - 65 °F 50% 29.95 in 15 mi East 10.4 mph - -   Mostly Cloudy
8:00 AM 78.8 °F - 64.4 °F 61% 29.95 in 6.2 mi East 10.4 mph - N/A   Mostly Cloudy
9:00 AM 78.8 °F - 66.2 °F 65% 29.98 in 6.2 mi East 17.3 mph - N/A   Mostly Cloudy
10:00 AM 80.6 °F 82.3 °F 64.4 °F 58% 29.98 in 6.2 mi East 16.1 mph - N/A   Mostly Cloudy
11:00 AM 82 °F - 67 °F 51% 29.96 in 15 mi ESE 19.6 mph - -   Partly Cloudy
11:00 AM 82.4 °F 84.6 °F 66.2 °F 58% 29.95 in 6.2 mi ESE 19.6 mph - N/A   Mostly Cloudy
12:00 PM 82.4 °F 85.4 °F 68.0 °F 62% 29.95 in 6.2 mi East 20.7 mph - N/A   Partly Cloudy
1:00 PM 84.2 °F 85.6 °F 64.4 °F 51% 29.92 in 6.2 mi East 18.4 mph - N/A   Scattered Clouds
2:00 PM 83 °F - 69 °F 53% 29.89 in 14 mi East 18.4 mph - -   Partly Cloudy
2:00 PM 82.4 °F 85.4 °F 68.0 °F 62% 29.89 in 6.2 mi East 18.4 mph - N/A   Scattered Clouds
3:00 PM 80.6 °F 82.7 °F 66.2 °F 61% 29.89 in 6.2 mi East 18.4 mph - N/A   Scattered Clouds
5:00 PM 79 °F - 67 °F 58% 29.89 in 17 mi East 17.3 mph - -   Mostly Cloudy
5:00 PM 78.8 °F - 66.2 °F 65% 29.89 in 6.2 mi East 17.3 mph - N/A   Scattered Clouds
6:00 PM 77.0 °F - 66.2 °F 69% 29.89 in 6.2 mi East 15.0 mph - N/A   Scattered Clouds
7:00 PM 77.0 °F - 66.2 °F 69% 29.89 in 6.2 mi East 15.0 mph - N/A   Partly Cloudy
8:00 PM 77 °F - 66 °F 61% 29.92 in 19 mi East 15.0 mph - -  
8:00 PM 77.0 °F - 66.2 °F 69% 29.92 in 6.2 mi East 15.0 mph - N/A   Partly Cloudy
9:00 PM 77.0 °F - 66.2 °F 69% 29.92 in 6.2 mi East 13.8 mph - N/A   Scattered Clouds
10:00 PM 77.0 °F - 66.2 °F 69% 29.95 in 6.2 mi East 16.1 mph - N/A   Partly Cloudy
11:00 PM 77 °F - 67 °F 63% 29.93 in 19 mi East 18.4 mph - -   Mostly Cloudy
11:00 PM 77.0 °F - 66.2 °F 69% 29.92 in 6.2 mi East 18.4 mph - N/A   Scattered Clouds